Location: Irma
(52.9170°N, 111.2330°W)
Time: 22:24:11
(UTC-06:00)

Cosmos 1633 Rocket - Visible Passes

Search period start: 01 September 2014 00:00
Search period end: 11 September 2014 00:00
Orbit: 609 x 626 km, 82.5° (Epoch: 01 September)

Date Brightness Start Highest point End Pass type
(mag) Time Alt. Az. Time Alt. Az. Time Alt. Az.
01 Sep 3.8 22:14:32 10° N 22:18:35 36° ENE 22:19:34 32° E visible
01 Sep 4.4 23:52:32 10° NNW 23:56:21 30° W 23:56:41 29° W visible
02 Sep 3.1 22:31:14 10° N 22:35:34 59° ENE 22:36:22 49° ESE visible
03 Sep 5.1 00:09:57 10° NW 00:12:58 19° W 00:13:30 18° W visible
03 Sep 5.0 21:11:24 10° NNE 21:13:58 15° ENE 21:16:04 11° E visible
03 Sep 3.0 22:48:04 10° NNW 22:52:27 84° W 22:53:11 61° S visible
04 Sep 5.7 00:28:07 10° WNW 00:29:31 11° W 00:30:19 11° W visible
04 Sep 4.4 21:27:38 10° NNE 21:31:08 23° ENE 21:32:54 18° E visible
04 Sep 3.7 23:05:02 10° NNW 23:09:15 49° W 23:10:01 43° SW visible
05 Sep 3.8 21:44:10 10° N 21:48:12 36° ENE 21:49:45 27° ESE visible
05 Sep 4.5 23:22:10 10° NNW 23:25:58 30° W 23:26:53 27° WSW visible
06 Sep 3.1 22:00:52 10° N 22:05:11 59° ENE 22:06:37 38° SE visible
06 Sep 5.2 23:39:35 10° NW 23:42:36 19° W 23:43:45 17° WSW visible
07 Sep 4.9 20:41:02 10° NNE 20:43:35 15° ENE 20:46:08 10° E visible
07 Sep 3.0 22:17:42 10° NNW 22:22:04 83° W 22:23:31 42° S visible
07 Sep 5.8 23:57:45 10° WNW 23:59:08 11° W 00:00:30 10° W visible
08 Sep 4.4 20:57:15 10° NNE 21:00:45 23° ENE 21:03:18 14° ESE visible
08 Sep 3.8 22:34:40 10° NNW 22:38:52 49° W 22:40:25 33° SSW visible
09 Sep 3.7 21:13:47 10° N 21:17:49 36° ENE 21:20:14 20° SE visible
09 Sep 4.7 22:51:48 10° NNW 22:55:35 30° W 22:57:21 22° SW visible
10 Sep 3.1 21:30:29 10° N 21:34:48 59° ENE 21:37:11 25° SSE visible
10 Sep 5.4 23:09:12 10° NW 23:12:12 19° W 23:14:19 14° WSW visible
